QPF
0.00 0.00 0.00 0.00 0.00 0.00 0.00 0.00 0.00 0.00 0.00 0.00 0.00 0.00 0.00 0.00 0.00 0.00 0.00 0.01 0.00 0.00 0.01 0.07 0.77 0.21 0.14 0.12 0.12 0.10 0.08 0.01 0.01 0.01 0.00 0.01 0.04 0.00 0.00 0.00 0.00 0.00 0.00
0.00 0.00 0.00 0.00 0.00 0.00 0.00 0.00 0.00 0.00 0.00 0.00 0.00 0.00 0.00 0.00 0.00 0.00 0.00 0.00 0.00 0.00 0.04 0.07 0.75 0.15 0.12 0.11 0.11 0.09 0.04 0.01 0.01 0.01 0.00 0.00 0.01 0.02 0.01 0.00 0.00 0.00 0.00
0.00 0.00 0.00 0.00 0.00 0.00 0.00 0.00 0.00 0.00 0.00 0.00 0.00 0.00 0.00 0.00 0.00 0.00 0.00 0.00 0.00 0.00 0.06 0.16 0.24 0.06 0.06 0.10 0.11 0.06 0.02 0.02 0.00 0.00 0.00 0.00 0.00 0.01 0.04 0.00 0.00 0.00 0.00
0.00 0.00 0.00 0.00 0.00 0.00 0.00 0.00 0.00 0.00 0.00 0.00 0.00 0.00 0.00 0.00 0.00 0.00 0.00 0.00 0.00 0.01 0.01 0.05 0.07 0.06 0.05 0.09 0.07 0.03 0.00 0.01 0.00 0.00 0.00 0.00 0.00 0.00 0.00 0.00 0.00 0.00 0.00
0.00 0.00 0.00 0.00 0.00 0.00 0.00 0.00 0.00 0.00 0.00 0.00 0.00 0.00 0.00 0.00 0.01 0.02 0.01 0.00 0.00 0.00 0.00 0.01 0.01 0.02 0.04 0.07 0.02 0.00 0.00 0.00 0.00 0.00 0.00 0.00 0.00 0.00 0.00 0.00 0.00 0.00 0.00
0.00 0.00 0.00 0.00 0.00 0.00 0.00 0.00 0.00 0.00 0.00 0.00 0.00 0.00 0.00 0.00 0.03 0.02 0.01 0.00 0.00 0.00 0.00 0.02 0.02 0.03 0.02 0.02 0.00 0.00 0.00 0.00 0.00 0.00 0.00 0.00 0.00 0.00 0.00 0.00 0.00 0.00 0.00
0.00 0.00 0.00 0.00 0.00 0.00 0.00 0.00 0.00 0.00 0.00 0.00 0.00 0.02 0.03 0.04 0.03 0.01 0.00 0.00 0.00 0.00 0.00 0.00 0.01 0.01 0.03 0.00 0.00 0.00 0.00 0.00 0.00 0.00 0.00 0.00 0.00 0.00 0.00 0.00 0.00 0.00 0.00
0.00 0.00 0.00 0.00 0.00 0.00 0.00 0.00 0.00 0.00 0.00 0.00 0.00 0.00 0.01 0.01 0.00 0.00 0.00 0.00 0.00 0.00 0.00 0.00 0.00 0.01 0.02 0.03 0.01 0.00 0.00 0.00 0.00 0.00 0.00 0.00 0.00 0.00 0.00 0.00 0.00 0.00 0.00
0.00 0.00 0.00 0.00 0.00 0.00 0.00 0.00 0.00 0.00 0.00 0.00 0.00 0.00 0.00 0.00 0.00 0.00 0.00 0.00 0.00 0.01 0.00 0.00 0.01 0.01 0.00 0.02 0.00 0.00 0.00 0.00 0.00 0.00 0.00 0.00 0.00 0.00 0.00 0.00 0.00 0.00 0.00
0.00 0.00 0.00 0.00 0.00 0.00 0.00 0.00 0.00 0.00 0.00 0.00 0.00 0.00 0.00 0.00 0.00 0.00 0.00 0.00 0.00 0.00 0.00 0.00 0.01 0.00 0.01 0.01 0.00 0.00 0.00 0.00 0.00 0.00 0.00 0.00 0.00 0.00 0.00 0.00 0.00 0.00 0.00
0.00 0.01 0.00 0.00 0.00 0.00 0.00 0.00 0.00 0.00 0.00 0.00 0.00 0.00 0.00 0.00 0.00 0.00 0.00 0.00 0.00 0.00 0.00 0.00 0.01 0.01 0.03 0.01 0.00 0.00 0.00 0.00 0.00 0.00 0.00 0.00 0.00 0.00 0.00 0.00 0.00 0.00 0.00
0.00 0.00 0.00 0.00 0.00 0.00 0.00 0.00 0.00 0.00 0.00 0.00 0.00 0.00 0.00 0.00 0.00 0.00 0.00 0.00 0.00 0.00 0.00 0.00 0.01 0.01 0.01 0.00 0.00 0.00 0.00 0.00 0.00 0.00 0.00 0.00 0.00 0.00 0.00 0.00 0.00 0.00 0.00
0.00 0.00 0.00 0.00 0.00 0.00 0.00 0.00 0.00 0.00 0.00 0.00 0.00 0.00 0.00 0.00 0.00 0.00 0.00 0.00 0.00 0.00 0.00 0.00 0.00 0.00 0.00 0.01 0.00 0.00 0.00 0.00 0.00 0.00 0.00 0.00 0.00 0.00 0.00 0.00 0.00 0.00 0.00
0.00 0.00 0.00 0.00 0.00 0.00 0.00 0.00 0.00 0.00 0.00 0.00 0.00 0.00 0.01 0.01 0.00 0.00 0.00 0.00 0.00 0.00 0.00 0.00 0.00 0.00 0.01 0.02 0.00 0.00 0.00 0.00 0.00 0.00 0.00 0.00 0.00 0.00 0.00 0.00 0.00 0.00 0.00
0.00 0.00 0.02 0.01 0.00 0.00 0.00 0.00 0.00 0.00 0.00 0.00 0.00 0.00 0.04 0.02 0.01 0.00 0.00 0.00 0.00 0.00 0.00 0.00 0.00 0.02 0.02 0.01 0.00 0.00 0.00 0.00 0.00 0.00 0.00 0.00 0.00 0.00 0.00 0.00 0.00 0.00 0.02
0.00 0.00 0.00 0.00 0.00 0.00 0.00 0.00 0.00 0.00 0.00 0.00 0.00 0.00 0.10 0.02 0.02 0.01 0.01 0.00 0.01 0.01 0.00 0.02 0.01 0.01 0.00 0.00 0.01 0.00 0.00 0.00 0.00 0.00 0.00 0.00 0.00 0.00 0.00 0.00 0.00 0.00 0.00
0.00 0.01 0.00 0.00 0.00 0.00 0.00 0.00 0.00 0.00 0.00 0.00 0.00 0.00 0.00 0.00 0.00 0.00 0.01 0.00 0.00 0.00 0.00 0.01 0.02 0.02 0.00 0.00 0.01 0.00 0.00 0.00 0.00 0.00 0.00 0.00 0.00 0.00 0.00 0.00 0.00 0.00 0.00
0.00 0.00 0.00 0.00 0.00 0.00 0.00 0.01 0.00 0.00 0.00 0.00 0.00 0.00 0.00 0.00 0.00 0.03 0.00 0.00 0.00 0.00 0.00 0.00 0.00 0.01 0.00 0.00 0.00 0.01 0.05 0.01 0.00 0.00 0.00 0.00 0.00 0.00 0.00 0.00 0.00 0.00 0.00
0.00 0.00 0.01 0.01 0.00 0.00 0.04 0.03 0.03 0.00 0.00 0.00 0.00 0.00 0.00 0.00 0.01 0.03 0.04 0.03 0.00 0.00 0.01 0.00 0.01 0.00 0.00 0.00 0.00 0.01 0.02 0.00 0.00 0.00 0.00 0.00 0.00 0.00 0.00 0.00 0.00 0.00 0.00
0.00 0.00 0.00 0.00 0.00 0.04 0.02 0.00 0.00 0.00 0.00 0.00 0.00 0.00 0.00 0.00 0.00 0.01 0.02 0.03 0.02 0.05 0.10 0.07 0.11 0.06 0.02 0.01 0.00 0.01 0.02 0.01 0.00 0.00 0.00 0.00 0.00 0.00 0.00 0.00 0.00 0.00 0.00
0.00 0.00 0.00 0.00 0.01 0.00 0.00 0.01 0.03 0.01 0.00 0.00 0.07 0.02 0.01 0.01 0.01 0.00 0.00 0.05 0.01 0.03 0.04 0.03 0.02 0.02 0.00 0.00 0.00 0.00 0.00 0.00 0.00 0.00 0.00 0.00 0.00 0.00 0.00 0.00 0.00 0.00 0.00
0.00 0.00 0.01 0.01 0.01 0.00 0.03 0.06 0.05 0.06 0.02 0.02 0.04 0.05 0.03 0.03 0.06 0.06 0.03 0.00 0.00 0.00 0.00 0.00 0.00 0.00 0.00 0.00 0.00 0.00 0.00 0.00 0.00 0.00 0.00 0.01 0.01 0.00 0.00 0.00 0.00 0.00 0.00
0.01 0.02 0.03 0.02 0.02 0.00 0.00 0.08 0.16 0.07 0.02 0.02 0.08 0.07 0.03 0.02 0.03 0.03 0.03 0.00 0.00 0.00 0.00 0.00 0.00 0.00 0.00 0.00 0.00 0.00 0.00 0.00 0.00 0.00 0.00 0.01 0.00 0.00 0.00 0.00 0.00 0.00 0.00
0.05 0.05 0.03 0.06 0.11 0.16 0.08 0.04 0.03 0.04 0.01 0.01 0.01 0.00 0.01 0.01 0.00 0.01 0.00 0.00 0.00 0.00 0.00 0.00 0.00 0.01 0.01 0.01 0.01 0.00 0.00 0.01 0.01 0.00 0.00 0.00 0.00 0.00 0.00 0.00 0.00 0.00 0.00
0.12 0.20 0.25 0.17 0.12 0.05 0.12 0.11 0.02 0.00 0.00 0.00 0.01 0.01 0.01 0.01 0.01 0.01 0.01 0.00 0.00 0.00 0.00 0.00 0.00 0.00 0.00 0.00 0.00 0.00 0.00 0.00 0.01 0.00 0.01 0.02 0.00 0.00 0.00 0.00 0.00 0.01 0.01
0.28 0.19 0.11 0.06 0.05 0.06 0.07 0.06 0.02 0.00 0.00 0.00 0.00 0.00 0.00 0.00 0.01 0.01 0.01 0.00 0.00 0.00 0.00 0.00 0.00 0.01 0.01 0.03 0.04 0.05 0.08 0.09 0.06 0.03 0.02 0.04 0.02 0.02 0.04 0.03 0.03 0.05 0.06
MSLP
1018.38 1018.49 1018.42 1018.33 1018.26 1018.21 1017.93 1017.76 1017.73 1017.52 1017.60 1017.31 1017.09 1017.16 1017.17 1017.24 1017.30 1017.56 1018.03 1018.53 1018.52 1018.87 1018.74 1018.30 1017.86 1018.70 1018.18 1017.52 1016.76 1016.71 1016.46 1016.22 1016.25 1016.31 1016.24 1016.08 1015.90 1015.97 1015.80 1015.76 1015.76 1015.67 1015.74
1018.30 1018.46 1018.44 1018.37 1018.46 1018.12 1017.73 1017.62 1017.53 1017.52 1017.55 1017.07 1016.81 1016.95 1016.89 1017.17 1017.46 1017.78 1018.01 1018.30 1018.37 1018.12 1017.65 1017.20 1017.25 1017.69 1017.76 1017.05 1016.54 1016.59 1016.59 1016.22 1016.32 1016.39 1016.38 1016.24 1016.15 1015.93 1015.82 1015.83 1015.84 1015.93 1016.00
1018.23 1018.42 1018.55 1018.58 1018.51 1018.19 1017.86 1017.62 1017.42 1017.42 1017.20 1017.17 1017.13 1017.03 1016.85 1017.22 1017.38 1017.56 1017.72 1017.93 1017.85 1017.69 1017.28 1016.52 1016.76 1017.06 1017.57 1017.00 1016.36 1016.61 1016.58 1016.41 1016.32 1016.42 1016.46 1016.30 1016.28 1016.17 1016.03 1016.06 1016.03 1016.07 1016.09
1018.11 1018.24 1018.37 1018.64 1018.48 1018.16 1017.83 1017.82 1017.83 1017.67 1017.38 1017.07 1017.58 1017.48 1017.64 1017.52 1017.73 1017.80 1017.80 1017.63 1017.26 1018.00 1018.00 1017.80 1016.51 1016.36 1016.90 1016.56 1016.25 1016.53 1016.68 1016.44 1016.27 1016.30 1016.44 1016.40 1016.22 1016.26 1016.23 1016.27 1016.26 1016.25 1016.15
1018.38 1018.41 1018.46 1018.69 1018.32 1018.25 1018.16 1018.20 1018.20 1017.76 1017.59 1017.53 1017.76 1017.84 1017.95 1018.18 1017.95 1017.93 1017.79 1017.47 1017.14 1017.92 1017.59 1016.64 1016.03 1016.22 1016.67 1016.65 1016.37 1016.51 1016.61 1016.48 1016.29 1016.27 1016.36 1016.46 1016.31 1016.29 1016.22 1016.28 1016.36 1016.43 1016.41
1018.38 1018.41 1018.50 1018.57 1018.51 1018.58 1018.67 1018.45 1018.19 1018.14 1018.14 1018.09 1018.06 1017.99 1018.00 1018.24 1017.84 1017.84 1017.34 1017.06 1016.91 1017.06 1016.62 1015.65 1015.82 1016.36 1016.54 1016.71 1016.48 1016.61 1016.53 1016.53 1016.28 1016.27 1016.30 1016.31 1016.26 1016.19 1016.23 1016.17 1016.23 1016.41 1016.59
1018.32 1018.22 1018.62 1018.70 1018.54 1018.63 1018.80 1018.72 1018.37 1018.50 1018.68 1018.65 1018.88 1018.58 1018.42 1017.85 1017.95 1017.90 1017.38 1017.25 1017.07 1016.78 1016.45 1016.52 1016.52 1016.48 1016.53 1016.61 1016.52 1016.80 1016.53 1016.48 1016.22 1016.08 1016.14 1016.19 1016.13 1016.05 1016.13 1016.17 1016.30 1016.48 1016.65
1018.16 1018.30 1018.42 1018.72 1018.41 1018.65 1018.72 1018.59 1018.59 1019.02 1019.13 1019.03 1019.42 1019.53 1019.32 1018.92 1018.14 1017.92 1018.19 1017.56 1017.04 1016.70 1016.79 1016.69 1016.53 1016.12 1016.29 1016.57 1016.68 1016.88 1016.76 1016.63 1016.27 1016.08 1016.07 1016.26 1016.28 1016.18 1016.22 1016.28 1016.41 1016.56 1016.87
1018.04 1018.10 1018.41 1018.56 1018.32 1018.44 1018.70 1018.53 1018.56 1018.82 1019.17 1019.29 1019.36 1019.34 1019.75 1019.53 1019.12 1018.03 1017.90 1017.73 1017.13 1016.84 1016.80 1017.03 1016.71 1016.36 1016.64 1016.90 1017.13 1017.02 1016.99 1016.87 1016.35 1016.16 1016.21 1016.29 1016.29 1016.28 1016.32 1016.43 1016.53 1016.55 1016.66
1017.98 1018.10 1018.25 1018.50 1018.40 1018.44 1018.56 1018.49 1018.58 1018.56 1018.79 1019.64 1019.52 1019.18 1019.16 1019.45 1019.55 1019.20 1017.78 1017.70 1016.97 1016.95 1017.04 1017.04 1016.68 1016.83 1016.83 1017.24 1017.29 1017.12 1017.07 1016.91 1016.54 1016.30 1016.12 1016.09 1016.19 1016.23 1016.26 1016.41 1016.62 1016.79 1016.86
1017.91 1018.10 1018.22 1018.49 1018.57 1018.52 1018.44 1018.37 1018.27 1018.40 1018.85 1019.18 1019.12 1019.21 1019.41 1019.57 1019.46 1019.80 1019.36 1017.83 1017.10 1017.08 1017.08 1016.97 1016.48 1016.84 1016.83 1017.05 1017.34 1017.19 1017.15 1016.95 1016.77 1016.60 1016.47 1016.01 1016.03 1015.90 1016.04 1016.20 1016.40 1016.61 1016.77
1018.21 1018.14 1018.14 1018.26 1018.29 1018.45 1018.42 1018.19 1018.21 1018.42 1018.71 1018.79 1018.86 1019.05 1019.21 1019.24 1019.36 1019.72 1019.86 1018.97 1018.48 1017.40 1017.10 1016.78 1016.83 1016.78 1016.88 1017.02 1017.13 1017.23 1017.28 1017.16 1016.87 1016.86 1016.80 1016.47 1016.19 1015.88 1015.79 1015.80 1016.08 1016.26 1016.48
1017.97 1017.76 1017.85 1017.98 1018.01 1017.98 1018.05 1018.01 1018.28 1018.38 1018.63 1018.75 1018.81 1018.95 1018.83 1018.81 1018.91 1019.30 1019.46 1019.07 1018.74 1017.91 1017.51 1017.18 1017.03 1017.09 1017.11 1017.36 1017.39 1017.41 1017.47 1017.38 1017.31 1017.27 1017.17 1016.76 1016.46 1016.27 1015.98 1015.68 1015.64 1015.79 1016.07
1017.41 1017.30 1017.52 1017.65 1017.67 1017.77 1017.75 1017.90 1018.20 1018.35 1018.49 1018.46 1018.59 1018.65 1018.42 1018.34 1018.58 1018.70 1018.76 1018.84 1018.63 1018.37 1017.95 1017.50 1017.25 1017.15 1017.39 1017.56 1017.72 1017.77 1017.85 1017.80 1017.60 1017.51 1017.42 1017.11 1016.63 1016.16 1015.82 1015.62 1015.61 1015.59 1015.82
1017.18 1017.26 1017.16 1017.47 1017.49 1017.56 1017.52 1017.70 1018.16 1018.35 1018.34 1018.28 1018.26 1018.23 1018.29 1018.19 1018.37 1018.35 1018.35 1018.23 1018.31 1018.67 1018.33 1017.59 1017.47 1017.10 1017.26 1017.52 1017.61 1017.79 1017.82 1018.01 1017.58 1017.41 1017.30 1017.22 1016.95 1016.45 1016.07 1015.70 1015.54 1015.50 1015.65
1017.03 1017.27 1017.26 1017.40 1017.43 1017.30 1017.33 1017.63 1017.89 1018.10 1018.23 1018.19 1017.99 1018.03 1018.32 1018.35 1018.25 1018.11 1017.99 1017.92 1018.02 1018.22 1018.32 1017.68 1017.45 1017.23 1017.14 1017.43 1017.70 1017.89 1017.94 1018.01 1017.77 1017.65 1017.52 1017.39 1017.22 1016.79 1016.49 1016.32 1016.09 1016.25 1016.33
1016.91 1017.24 1017.24 1017.42 1017.39 1017.39 1017.42 1017.57 1017.77 1017.92 1018.07 1018.05 1018.06 1018.14 1018.11 1018.09 1017.98 1017.84 1017.73 1017.75 1017.82 1017.99 1018.23 1017.54 1017.33 1017.31 1017.33 1017.60 1017.86 1017.92 1018.08 1018.03 1018.15 1018.15 1017.91 1017.76 1017.68 1017.42 1017.12 1016.80 1016.77 1016.54 1016.57
1016.69 1016.93 1017.11 1017.20 1017.25 1017.27 1017.27 1017.35 1017.53 1017.67 1017.82 1018.04 1018.06 1018.12 1018.06 1017.92 1017.76 1017.69 1017.70 1017.68 1017.75 1017.78 1017.96 1017.81 1017.40 1017.26 1017.21 1017.49 1017.67 1018.12 1018.06 1017.97 1018.16 1018.46 1018.36 1018.35 1018.14 1017.97 1017.73 1017.40 1017.15 1017.13 1017.13
1016.40 1016.65 1016.84 1017.04 1017.03 1017.04 1017.15 1017.23 1017.27 1017.44 1017.49 1017.61 1017.65 1017.67 1017.60 1017.65 1017.66 1017.64 1017.55 1017.59 1017.61 1017.55 1017.64 1017.66 1017.52 1017.19 1017.31 1017.55 1017.89 1018.00 1018.13 1018.27 1018.33 1018.62 1018.51 1018.58 1018.49 1018.23 1018.23 1017.97 1017.59 1017.51 1017.43
1015.89 1016.02 1016.14 1016.33 1016.53 1016.62 1016.78 1016.93 1016.94 1016.96 1017.03 1017.16 1017.18 1017.25 1017.26 1017.34 1017.44 1017.41 1017.41 1017.42 1017.41 1017.40 1017.47 1017.53 1017.61 1017.45 1017.33 1017.35 1017.55 1017.93 1018.27 1018.38 1018.46 1018.21 1018.50 1018.79 1018.94 1018.79 1018.62 1018.67 1018.40 1018.20 1018.15
1015.36 1015.43 1015.60 1015.76 1015.95 1016.18 1016.27 1016.43 1016.56 1016.65 1016.77 1016.84 1016.94 1016.99 1017.01 1017.10 1017.22 1017.23 1017.36 1017.27 1017.39 1017.35 1017.30 1017.32 1017.42 1017.41 1017.29 1017.31 1017.21 1017.26 1017.72 1018.01 1018.25 1018.43 1018.73 1018.85 1018.92 1019.11 1018.92 1018.76 1018.71 1018.63 1018.69
1015.00 1015.21 1015.42 1015.52 1015.69 1015.74 1015.86 1016.03 1016.37 1016.63 1016.70 1016.77 1016.87 1016.80 1016.94 1017.02 1017.14 1017.23 1017.23 1017.25 1017.24 1017.36 1017.35 1017.32 1017.24 1017.25 1017.09 1016.93 1016.89 1017.03 1017.32 1017.68 1018.05 1017.74 1018.40 1018.75 1018.80 1018.99 1018.91 1018.86 1018.98 1019.08 1019.22
1014.75 1014.96 1015.09 1015.37 1015.65 1015.90 1016.04 1016.16 1016.51 1016.72 1016.90 1016.89 1017.01 1017.06 1016.97 1017.20 1017.28 1017.38 1017.34 1017.32 1017.29 1017.18 1017.12 1017.05 1017.06 1017.20 1017.20 1016.99 1016.94 1016.99 1017.16 1017.31 1017.29 1017.47 1017.95 1018.44 1018.73 1019.08 1019.21 1019.19 1019.31 1019.57 1019.63
1014.47 1015.10 1015.32 1015.57 1015.98 1016.52 1016.53 1016.59 1016.69 1016.79 1017.03 1017.29 1017.40 1017.47 1017.60 1017.78 1017.77 1017.61 1017.48 1017.52 1017.67 1017.67 1017.49 1017.37 1017.31 1017.68 1017.71 1017.30 1017.07 1016.81 1016.90 1017.18 1017.65 1017.92 1018.00 1018.45 1018.83 1019.09 1019.40 1019.59 1019.82 1020.06 1020.11
1014.67 1015.17 1015.62 1016.07 1016.42 1016.84 1016.72 1016.62 1016.73 1016.83 1017.30 1017.78 1017.99 1018.04 1018.11 1018.12 1018.02 1017.67 1017.62 1017.73 1017.99 1018.19 1018.05 1018.06 1018.17 1018.20 1018.07 1017.68 1017.19 1017.13 1017.28 1017.44 1017.81 1018.19 1018.19 1018.13 1018.69 1019.28 1019.52 1019.78 1019.95 1020.46 1020.70
1015.29 1015.82 1016.27 1016.75 1016.78 1017.05 1017.03 1016.91 1016.70 1016.89 1017.53 1018.01 1018.30 1018.51 1018.65 1018.63 1018.29 1017.97 1017.77 1018.03 1018.27 1018.46 1018.42 1018.41 1018.66 1018.65 1018.72 1018.56 1018.28 1018.36 1018.31 1018.13 1018.13 1018.60 1018.80 1018.75 1019.00 1019.33 1019.84 1020.13 1020.16 1020.20 1020.74
Thickness
5750 5751 5753 5756 5759 5761 5764 5768 5769 5771 5770 5770 5771 5769 5769 5768 5767 5767 5761 5754 5750 5744 5745 5743 5739 5740 5738 5742 5745 5742 5743 5742 5737 5732 5728 5723 5715 5705 5698 5693 5685 5689 5692
5752 5753 5755 5757 5759 5765 5772 5773 5774 5774 5772 5775 5777 5775 5774 5771 5767 5763 5761 5756 5752 5753 5755 5756 5756 5748 5744 5748 5751 5743 5742 5744 5738 5732 5728 5723 5716 5706 5699 5693 5688 5689 5692
5753 5754 5755 5756 5761 5768 5773 5776 5777 5776 5780 5779 5779 5779 5777 5771 5768 5766 5764 5760 5756 5754 5756 5762 5759 5755 5749 5753 5756 5745 5743 5744 5741 5735 5729 5725 5720 5712 5706 5700 5693 5693 5696
5756 5756 5758 5758 5763 5769 5774 5776 5777 5780 5782 5783 5776 5776 5773 5771 5767 5765 5762 5761 5764 5756 5753 5751 5762 5763 5756 5758 5758 5747 5745 5746 5746 5740 5734 5728 5726 5720 5714 5708 5704 5703 5705
5754 5755 5758 5759 5766 5769 5772 5774 5775 5780 5781 5779 5775 5775 5773 5767 5768 5763 5763 5765 5766 5756 5758 5764 5770 5767 5759 5760 5759 5749 5747 5748 5748 5744 5740 5734 5732 5728 5723 5717 5714 5714 5715
5756 5758 5760 5762 5766 5768 5768 5772 5774 5777 5779 5776 5773 5772 5771 5768 5771 5768 5768 5770 5769 5765 5772 5777 5775 5767 5763 5761 5760 5751 5751 5750 5750 5748 5745 5742 5740 5738 5733 5731 5729 5726 5725
5758 5763 5762 5764 5767 5768 5768 5769 5773 5772 5773 5773 5766 5766 5767 5772 5768 5766 5769 5771 5771 5769 5772 5772 5770 5767 5765 5764 5763 5753 5754 5753 5753 5753 5750 5748 5746 5746 5742 5740 5737 5734 5732
5760 5763 5766 5766 5768 5769 5769 5770 5770 5767 5769 5771 5762 5757 5750 5759 5769 5766 5762 5769 5774 5774 5772 5770 5770 5771 5768 5767 5763 5756 5756 5756 5757 5757 5754 5751 5749 5749 5748 5746 5743 5741 5737
5763 5763 5764 5766 5769 5769 5768 5770 5770 5770 5766 5766 5765 5759 5749 5749 5753 5766 5767 5769 5774 5777 5775 5768 5770 5771 5768 5766 5760 5757 5758 5758 5760 5759 5757 5755 5754 5753 5752 5749 5748 5746 5745
5766 5767 5765 5765 5766 5768 5769 5771 5772 5773 5772 5760 5761 5764 5763 5756 5750 5749 5770 5771 5777 5776 5776 5769 5770 5768 5768 5764 5760 5761 5760 5762 5764 5763 5762 5761 5759 5757 5756 5754 5751 5749 5748
5766 5766 5766 5764 5764 5767 5771 5773 5773 5772 5770 5766 5764 5762 5760 5758 5759 5750 5748 5765 5774 5776 5775 5770 5773 5769 5768 5766 5763 5765 5763 5766 5767 5767 5767 5769 5767 5765 5762 5759 5757 5755 5752
5763 5765 5766 5768 5768 5768 5770 5773 5774 5773 5770 5769 5768 5765 5761 5760 5757 5750 5748 5755 5757 5770 5772 5773 5771 5770 5769 5769 5768 5766 5766 5766 5768 5768 5770 5772 5773 5773 5771 5768 5762 5760 5758
5764 5767 5768 5770 5772 5772 5771 5771 5772 5772 5770 5769 5768 5766 5767 5767 5765 5758 5754 5756 5756 5766 5770 5772 5772 5770 5769 5768 5767 5766 5766 5766 5767 5767 5767 5770 5773 5773 5773 5775 5773 5768 5764
5770 5770 5770 5771 5773 5771 5772 5772 5772 5772 5770 5770 5769 5768 5770 5772 5768 5765 5764 5760 5758 5760 5765 5767 5774 5772 5769 5767 5764 5764 5763 5763 5765 5766 5767 5770 5772 5775 5776 5776 5774 5772 5768
5772 5772 5772 5771 5772 5771 5773 5773 5771 5770 5770 5770 5771 5773 5772 5773 5770 5770 5768 5769 5762 5754 5755 5767 5769 5773 5771 5767 5766 5764 5763 5760 5764 5765 5766 5767 5769 5772 5773 5775 5774 5772 5770
5773 5771 5773 5773 5773 5774 5774 5774 5772 5771 5769 5769 5773 5775 5772 5770 5770 5772 5771 5771 5769 5762 5754 5767 5769 5771 5770 5767 5764 5764 5762 5759 5761 5762 5763 5764 5764 5767 5768 5768 5768 5766 5764
5771 5769 5771 5771 5771 5772 5773 5773 5772 5771 5770 5771 5771 5771 5771 5772 5771 5772 5772 5771 5769 5765 5757 5766 5770 5769 5768 5764 5762 5761 5758 5758 5757 5756 5757 5758 5758 5759 5760 5762 5761 5762 5760
5770 5771 5770 5771 5772 5772 5773 5773 5772 5772 5770 5769 5768 5767 5768 5770 5770 5770 5770 5769 5767 5766 5761 5759 5765 5766 5765 5762 5758 5755 5753 5753 5752 5749 5748 5748 5749 5750 5752 5753 5755 5754 5752
5771 5771 5770 5769 5770 5771 5771 5772 5772 5772 5772 5770 5769 5768 5768 5768 5767 5767 5767 5766 5765 5764 5762 5760 5760 5765 5762 5759 5755 5753 5750 5747 5745 5741 5741 5739 5739 5741 5741 5742 5745 5746 5746
5774 5774 5775 5774 5773 5773 5772 5773 5772 5772 5771 5771 5771 5769 5768 5767 5765 5765 5765 5764 5763 5761 5759 5756 5755 5756 5759 5759 5756 5750 5745 5742 5739 5738 5735 5732 5730 5730 5730 5729 5731 5733 5733
5776 5778 5778 5778 5778 5775 5775 5773 5772 5772 5770 5769 5768 5768 5768 5767 5765 5763 5761 5760 5758 5756 5755 5753 5750 5750 5751 5751 5751 5750 5744 5741 5737 5734 5731 5727 5724 5722 5721 5721 5720 5720 5720
5772 5773 5772 5774 5775 5776 5775 5773 5769 5766 5765 5764 5762 5763 5763 5762 5760 5758 5756 5755 5754 5751 5749 5747 5746 5745 5746 5748 5748 5745 5742 5737 5733 5733 5726 5721 5717 5714 5713 5713 5711 5709 5707
5768 5767 5769 5769 5767 5768 5766 5765 5761 5759 5757 5757 5755 5754 5756 5753 5752 5750 5750 5749 5747 5746 5746 5745 5743 5741 5739 5739 5738 5735 5734 5732 5732 5728 5723 5716 5710 5705 5702 5701 5699 5695 5693
5764 5760 5760 5760 5758 5754 5753 5753 5753 5752 5750 5747 5746 5745 5743 5741 5740 5740 5741 5740 5736 5734 5734 5734 5733 5728 5726 5728 5727 5727 5726 5722 5716 5713 5712 5706 5700 5695 5690 5686 5682 5678 5676
5754 5753 5749 5746 5746 5744 5745 5746 5744 5744 5739 5734 5733 5733 5732 5731 5730 5732 5732 5729 5725 5722 5720 5717 5714 5712 5712 5713 5715 5714 5710 5709 5706 5701 5699 5699 5692 5684 5679 5674 5669 5663 5658
5737 5735 5735 5732 5734 5733 5734 5736 5737 5735 5729 5725 5722 5721 5719 5718 5719 5721 5723 5718 5714 5711 5708 5705 5701 5698 5696 5696 5696 5693 5693 5693 5692 5685 5681 5682 5677 5671 5666 5659 5656 5654 5645